This is the latest recevied weather packets stored in our database for station/object K3HM. If no packets are shown the sender has not sent any weather packets the latest 10 day(s).
| Time | Temp. | Humidity | Pressure | Rain* | Wind** | Luminosity | Snow |
|---|---|---|---|---|---|---|---|
| 1777865528 | 1.11° C | 87% | 1015.3 hPa | 0 mm | - | 0 W/m² | - |
| 1777865225 | 1.11° C | 87% | 1015.5 hPa | 0 mm | - | 0 W/m² | - |
| 1777864922 | 1.11° C | 87% | 1015.4 hPa | 0 mm | - | 0 W/m² | - |
| 1777864619 | 1.11° C | 88% | 1015.5 hPa | 0 mm | - | 0 W/m² | - |
| 1777864315 | 1.11° C | 87% | 1015.4 hPa | 0 mm | - | 0 W/m² | - |
| 1777864012 | 1.11° C | 87% | 1015.4 hPa | 0 mm | - | 0 W/m² | - |
| 1777863709 | 1.11° C | 85% | 1015.1 hPa | 0 mm | - | 0 W/m² | - |
| 1777863406 | 1.11° C | 84% | 1015.4 hPa | 0 mm | - | 0 W/m² | - |
| 1777863102 | 1.67° C | 83% | 1015.4 hPa | 0 mm | - | 0 W/m² | - |
| 1777862800 | 1.67° C | 85% | 1015.5 hPa | 0 mm | - | 0 W/m² | - |
| 1777862496 | 1.67° C | 85% | 1015.4 hPa | 0 mm | - | 0 W/m² | - |
| 1777862193 | 1.67° C | 85% | 1015.4 hPa | 0 mm | - | 0 W/m² | - |
| 1777861889 | 1.67° C | 85% | 1015.3 hPa | 0 mm | - | 0 W/m² | - |
| 1777861585 | 1.67° C | 84% | 1015.5 hPa | 0 mm | - | 0 W/m² | - |
| 1777861281 | 2.22° C | 83% | 1015.4 hPa | 0 mm | - | 0 W/m² | - |
| 1777860980 | 2.22° C | 82% | 1015.6 hPa | 0 mm | - | 0 W/m² | - |
| 1777860676 | 2.78° C | 79% | 1015.5 hPa | 0 mm | - | 0 W/m² | - |
| 1777860373 | 2.78° C | 78% | 1015.5 hPa | 0 mm | - | 0 W/m² | - |
| 1777860069 | 2.78° C | 80% | 1015.3 hPa | 0 mm | - | 0 W/m² | - |
| 1777859766 | 3.33° C | 79% | 1015.3 hPa | 0 mm | - | 0 W/m² | - |
| 1777859461 | 3.33° C | 77% | 1015.4 hPa | 0 mm | - | 0 W/m² | - |
| 1777859158 | 3.33° C | 76% | 1015.3 hPa | 0 mm | - | 0 W/m² | - |
| 1777858855 | 3.89° C | 76% | 1015.4 hPa | 0 mm | - | 0 W/m² | - |
| 1777858553 | 3.89° C | 76% | 1015.1 hPa | 0 mm | - | 0 W/m² | - |
| 1777858249 | 3.89° C | 76% | 1015.3 hPa | 0 mm | - | 0 W/m² | - |
* Rain latest hour (hover to see other rain measurements)
** Current wind speed in m/s (hover to see current wind gust speed)